Location: Kile Knob Observatory
(38.6083°N, 79.4792°W)
Time: 13:30:50
(UTC-04:00)

Tiangong 2 - Pass Details

Date: 31 May 2019
Orbit: 376 x 388 km, 42.8° (Epoch: 16 June)

Event Time Altitude Azimuth Distance (km) Brightness Sun altitude
Rises 21:45:47 0° 286° (WNW) 2,238 6.2 -12.0°
Reaches altitude 10° 21:47:57 10° 277° (W) 1,382 4.8 -12.3°
Maximum altitude 21:50:49 34° 210° (SSW) 632 2.0 -12.7°
Enters shadow 21:52:14 22° 160° (SSE) 873 2.3 -12.9°
